Time,TemperatureF,DewpointF,PressureIn,WindDirection,WindDirectionDegrees,WindSpeedMPH,WindSpeedGustMPH,Humidity,HourlyPrecipIn,Conditions,Clouds,dailyrainin,SoftwareType,DateUTC
2013-10-09 00:03:00,43.0,30.9,24.69,WSW,242,20.0,-999.0,62,-99.99,,,-99.99,dwt +perl,2013-10-09 07:03:00,
2013-10-09 00:08:00,43.2,31.1,24.70,WSW,247,19.0,-999.0,62,-99.99,,,-99.99,dwt +perl,2013-10-09 07:08:00,
2013-10-09 00:13:00,43.1,31.4,24.69,WSW,251,24.0,-999.0,63,-99.99,,,-99.99,dwt +perl,2013-10-09 07:13:00,
2013-10-09 00:18:00,42.9,31.6,24.69,SW,220,20.0,-999.0,64,-99.99,,,-99.99,dwt +perl,2013-10-09 07:18:00,
2013-10-09 00:23:00,42.2,32.4,24.69,West,270,22.0,-999.0,68,-99.99,,,-99.99,dwt +perl,2013-10-09 07:23:00,
2013-10-09 00:28:00,41.5,32.8,24.69,SW,228,18.0,-999.0,71,-99.99,,,-99.99,dwt +perl,2013-10-09 07:28:00,
2013-10-09 00:33:00,41.2,32.9,24.69,WSW,249,18.0,-999.0,72,-99.99,,,-99.99,dwt +perl,2013-10-09 07:33:00,
2013-10-09 00:38:00,41.0,33.0,24.68,West,260,21.0,-999.0,73,-99.99,,,-99.99,dwt +perl,2013-10-09 07:38:00,
2013-10-09 00:43:00,41.1,33.1,24.69,SW,222,20.0,-999.0,73,-99.99,,,-99.99,dwt +perl,2013-10-09 07:43:00,
2013-10-09 00:48:00,41.0,33.3,24.68,WSW,245,17.0,-999.0,74,-99.99,,,-99.99,dwt +perl,2013-10-09 07:48:00,
2013-10-09 00:53:00,40.6,33.0,24.68,SW,234,22.0,-999.0,74,-99.99,,,-99.99,dwt +perl,2013-10-09 07:53:00,
2013-10-09 00:58:00,41.0,32.3,24.68,WNW,291,23.0,-999.0,71,-99.99,,,-99.99,dwt +perl,2013-10-09 07:58:00,
2013-10-09 01:03:00,41.2,32.2,24.68,WSW,250,19.0,-999.0,70,-99.99,,,-99.99,dwt +perl,2013-10-09 08:03:00,
2013-10-09 01:08:00,41.3,31.9,24.67,WSW,241,18.0,-999.0,69,-99.99,,,-99.99,dwt +perl,2013-10-09 08:08:00,
2013-10-09 01:13:00,41.2,32.2,24.68,WSW,239,19.0,-999.0,70,-99.99,,,-99.99,dwt +perl,2013-10-09 08:13:00,
2013-10-09 01:18:00,41.1,32.1,24.68,SW,233,22.0,-999.0,70,-99.99,,,-99.99,dwt +perl,2013-10-09 08:18:00,
2013-10-09 01:23:00,41.2,31.8,24.68,WSW,242,17.0,-999.0,69,-99.99,,,-99.99,dwt +perl,2013-10-09 08:23:00,
2013-10-09 01:28:00,41.2,31.8,24.68,WSW,254,14.0,-999.0,69,-99.99,,,-99.99,dwt +perl,2013-10-09 08:28:00,
2013-10-09 01:33:00,40.9,31.9,24.68,WSW,252,18.0,-999.0,70,-99.99,,,-99.99,dwt +perl,2013-10-09 08:33:00,
2013-10-09 01:38:00,40.8,32.1,24.67,West,260,17.0,-999.0,71,-99.99,,,-99.99,dwt +perl,2013-10-09 08:38:00,
2013-10-09 01:43:00,40.6,32.3,24.67,WSW,247,17.0,-999.0,72,-99.99,,,-99.99,dwt +perl,2013-10-09 08:43:00,
2013-10-09 01:48:00,40.6,32.3,24.67,West,259,18.0,-999.0,72,-99.99,,,-99.99,dwt +perl,2013-10-09 08:48:00,
2013-10-09 01:53:00,41.0,32.3,24.67,SW,233,17.0,-999.0,71,-99.99,,,-99.99,dwt +perl,2013-10-09 08:53:00,
2013-10-09 01:58:00,41.0,32.0,24.67,WNW,287,19.0,-999.0,70,-99.99,,,-99.99,dwt +perl,2013-10-09 08:58:00,
2013-10-09 02:03:00,41.1,31.7,24.67,WSW,244,22.0,-999.0,69,-99.99,,,-99.99,dwt +perl,2013-10-09 09:03:00,
2013-10-09 02:08:00,41.1,31.7,24.67,West,280,21.0,-999.0,69,-99.99,,,-99.99,dwt +perl,2013-10-09 09:08:00,
2013-10-09 02:13:00,41.3,31.9,24.67,WSW,247,19.0,-999.0,69,-99.99,,,-99.99,dwt +perl,2013-10-09 09:13:00,
2013-10-09 02:18:00,41.3,32.3,24.67,West,265,16.0,-999.0,70,-99.99,,,-99.99,dwt +perl,2013-10-09 09:18:00,
2013-10-09 02:23:00,41.2,32.2,24.66,West,277,19.0,-999.0,70,-99.99,,,-99.99,dwt +perl,2013-10-09 09:23:00,
2013-10-09 02:28:00,41.2,32.2,24.66,WSW,241,16.0,-999.0,70,-99.99,,,-99.99,dwt +perl,2013-10-09 09:28:00,
2013-10-09 02:33:00,41.5,31.7,24.66,WSW,241,17.0,-999.0,68,-99.99,,,-99.99,dwt +perl,2013-10-09 09:33:00,
2013-10-09 02:38:00,41.6,31.5,24.66,WNW,289,17.0,-999.0,67,-99.99,,,-99.99,dwt +perl,2013-10-09 09:38:00,
2013-10-09 02:43:00,41.6,31.5,24.66,WSW,241,13.0,-999.0,67,-99.99,,,-99.99,dwt +perl,2013-10-09 09:43:00,
2013-10-09 02:48:00,41.6,31.5,24.66,West,276,24.0,-999.0,67,-99.99,,,-99.99,dwt +perl,2013-10-09 09:48:00,
2013-10-09 02:53:00,41.4,31.3,24.66,WSW,253,22.0,-999.0,67,-99.99,,,-99.99,dwt +perl,2013-10-09 09:53:00,
2013-10-09 02:58:00,41.2,31.5,24.66,West,276,21.0,-999.0,68,-99.99,,,-99.99,dwt +perl,2013-10-09 09:58:00,
2013-10-09 03:03:00,40.8,31.8,24.66,WSW,237,18.0,-999.0,70,-99.99,,,-99.99,dwt +perl,2013-10-09 10:03:00,
2013-10-09 03:08:00,40.4,31.8,24.66,WSW,253,17.0,-999.0,71,-99.99,,,-99.99,dwt +perl,2013-10-09 10:08:00,
2013-10-09 03:13:00,40.5,31.8,24.66,WSW,256,18.0,-999.0,71,-99.99,,,-99.99,dwt +perl,2013-10-09 10:13:00,
2013-10-09 03:18:00,40.7,31.7,24.65,WSW,247,21.0,-999.0,70,-99.99,,,-99.99,dwt +perl,2013-10-09 10:18:00,
2013-10-09 03:23:00,41.0,31.6,24.65,WSW,244,18.0,-999.0,69,-99.99,,,-99.99,dwt +perl,2013-10-09 10:23:00,
2013-10-09 03:28:00,41.0,31.3,24.65,SW,236,20.0,-999.0,68,-99.99,,,-99.99,dwt +perl,2013-10-09 10:28:00,
2013-10-09 03:38:00,40.7,31.3,24.65,West,268,19.0,-999.0,69,-99.99,,,-99.99,dwt +perl,2013-10-09 10:38:00,
2013-10-09 03:43:00,40.0,31.7,24.65,WSW,243,18.0,-999.0,72,-99.99,,,-99.99,dwt +perl,2013-10-09 10:43:00,
2013-10-09 03:44:00,40.8,31.4,24.65,WSW,241,20.0,-999.0,69,-99.99,,,-99.99,dwt +perl,2013-10-09 10:44:00,
2013-10-09 03:53:00,38.6,32.0,24.64,WSW,248,18.0,-999.0,77,-99.99,,,-99.99,dwt +perl,2013-10-09 10:53:00,
2013-10-09 03:59:00,39.3,32.0,24.64,SW,233,15.0,-999.0,75,-99.99,,,-99.99,dwt +perl,2013-10-09 10:59:00,
2013-10-09 04:09:00,38.2,32.3,24.64,West,267,22.0,-999.0,79,-99.99,,,-99.99,dwt +perl,2013-10-09 11:09:00,
2013-10-09 04:13:00,38.2,32.6,24.64,WSW,245,22.0,-999.0,80,-99.99,,,-99.99,dwt +perl,2013-10-09 11:13:00,
2013-10-09 04:14:00,37.9,32.3,24.64,WSW,252,18.0,-999.0,80,-99.99,,,-99.99,dwt +perl,2013-10-09 11:14:00,
2013-10-09 04:18:00,38.8,32.5,24.64,West,260,17.0,-999.0,78,-99.99,,,-99.99,dwt +perl,2013-10-09 11:18:00,
2013-10-09 04:19:00,37.9,32.6,24.64,WSW,245,14.0,-999.0,81,-99.99,,,-99.99,dwt +perl,2013-10-09 11:19:00,
2013-10-09 04:23:00,39.0,32.4,24.63,WSW,245,18.0,-999.0,77,-99.99,,,-99.99,dwt +perl,2013-10-09 11:23:00,
2013-10-09 04:28:00,39.1,32.2,24.63,WSW,240,16.0,-999.0,76,-99.99,,,-99.99,dwt +perl,2013-10-09 11:28:00,
2013-10-09 04:33:00,39.4,32.1,24.63,SW,235,18.0,-999.0,75,-99.99,,,-99.99,dwt +perl,2013-10-09 11:33:00,
2013-10-09 04:38:00,39.0,32.4,24.63,WSW,255,11.0,-999.0,77,-99.99,,,-99.99,dwt +perl,2013-10-09 11:38:00,
2013-10-09 04:43:00,38.6,32.3,24.63,WSW,239,21.0,-999.0,78,-99.99,,,-99.99,dwt +perl,2013-10-09 11:43:00,
2013-10-09 04:48:00,38.3,32.4,24.62,WSW,237,17.0,-999.0,79,-99.99,,,-99.99,dwt +perl,2013-10-09 11:48:00,
2013-10-09 04:53:00,37.4,32.7,24.62,SW,235,16.0,-999.0,83,-99.99,,,-99.99,dwt +perl,2013-10-09 11:53:00,
2013-10-09 05:03:00,36.6,33.4,24.62,WSW,243,15.0,-999.0,88,-99.99,,,-99.99,dwt +perl,2013-10-09 12:03:00,
2013-10-09 05:08:00,36.7,33.8,24.62,WSW,237,18.0,-999.0,89,-99.99,,,-99.99,dwt +perl,2013-10-09 12:08:00,
2013-10-09 05:09:00,36.8,33.0,24.62,WSW,239,20.0,-999.0,86,-99.99,,,-99.99,dwt +perl,2013-10-09 12:09:00,
2013-10-09 05:13:00,36.2,33.3,24.62,SW,233,18.0,-999.0,89,-99.99,,,-99.99,dwt +perl,2013-10-09 12:13:00,
2013-10-09 05:23:00,35.9,33.8,24.62,WSW,242,20.0,-999.0,92,-99.99,,,-99.99,dwt +perl,2013-10-09 12:23:00,
2013-10-09 05:28:00,36.0,34.2,24.61,WSW,237,22.0,-999.0,93,-99.99,,,-99.99,dwt +perl,2013-10-09 12:28:00,
2013-10-09 05:29:00,36.0,33.6,24.62,WSW,243,16.0,-999.0,91,-99.99,,,-99.99,dwt +perl,2013-10-09 12:29:00,
2013-10-09 05:43:00,36.1,34.5,24.61,WSW,240,22.0,-999.0,94,-99.99,,,-99.99,dwt +perl,2013-10-09 12:43:00,
2013-10-09 05:44:00,36.1,34.3,24.61,SW,236,21.0,-999.0,93,-99.99,,,-99.99,dwt +perl,2013-10-09 12:44:00,
2013-10-09 05:49:00,36.1,34.5,24.61,SW,233,21.0,-999.0,94,-99.99,,,-99.99,dwt +perl,2013-10-09 12:49:00,
2013-10-09 05:53:00,36.2,34.6,24.62,SW,231,19.0,-999.0,94,-99.99,,,-99.99,dwt +perl,2013-10-09 12:53:00,
2013-10-09 05:59:00,36.1,34.5,24.61,WSW,245,22.0,-999.0,94,-99.99,,,-99.99,dwt +perl,2013-10-09 12:59:00,
2013-10-09 06:09:00,36.2,34.6,24.62,WSW,258,22.0,-999.0,94,-99.99,,,-99.99,dwt +perl,2013-10-09 13:09:00,
2013-10-09 06:13:00,36.1,34.8,24.62,West,262,20.0,-999.0,95,-99.99,,,-99.99,dwt +perl,2013-10-09 13:13:00,
2013-10-09 06:14:00,36.2,34.6,24.62,WSW,243,17.0,-999.0,94,-99.99,,,-99.99,dwt +perl,2013-10-09 13:14:00,
2013-10-09 06:19:00,36.2,34.9,24.62,WSW,254,15.0,-999.0,95,-99.99,,,-99.99,dwt +perl,2013-10-09 13:19:00,
2013-10-09 06:28:00,36.1,34.8,24.63,WSW,249,14.0,-999.0,95,-99.99,,,-99.99,dwt +perl,2013-10-09 13:28:00,
2013-10-09 06:29:00,36.0,34.7,24.62,WSW,248,16.0,-999.0,95,-99.99,,,-99.99,dwt +perl,2013-10-09 13:29:00,
2013-10-09 06:34:00,36.1,34.8,24.63,WSW,246,15.0,-999.0,95,-99.99,,,-99.99,dwt +perl,2013-10-09 13:34:00,
2013-10-09 06:38:00,36.1,34.8,24.63,WSW,249,11.0,-999.0,95,-99.99,,,-99.99,dwt +perl,2013-10-09 13:38:00,
2013-10-09 06:43:00,36.1,34.8,24.63,WSW,253,10.0,-999.0,95,-99.99,,,-99.99,dwt +perl,2013-10-09 13:43:00,
2013-10-09 06:44:00,36.1,34.8,24.63,SW,235,20.0,-999.0,95,-99.99,,,-99.99,dwt +perl,2013-10-09 13:44:00,
2013-10-09 06:53:00,36.1,34.8,24.63,West,264,20.0,-999.0,95,-99.99,,,-99.99,dwt +perl,2013-10-09 13:53:00,
2013-10-09 06:59:00,36.1,34.8,24.63,West,262,12.0,-999.0,95,-99.99,,,-99.99,dwt +perl,2013-10-09 13:59:00,
2013-10-09 07:03:00,36.0,34.7,24.63,WSW,253,20.0,-999.0,95,-99.99,,,-99.99,dwt +perl,2013-10-09 14:03:00,
2013-10-09 07:09:00,36.0,34.7,24.63,SW,228,18.0,-999.0,95,-99.99,,,-99.99,dwt +perl,2013-10-09 14:09:00,
2013-10-09 07:13:00,35.9,34.6,24.63,WSW,251,13.0,-999.0,95,-99.99,,,-99.99,dwt +perl,2013-10-09 14:13:00,
2013-10-09 07:19:00,35.9,34.9,24.63,West,263,16.0,-999.0,96,-99.99,,,-99.99,dwt +perl,2013-10-09 14:19:00,
2013-10-09 07:23:00,34.9,33.6,24.64,West,260,24.0,-999.0,95,-99.99,,,-99.99,dwt +perl,2013-10-09 14:23:00,
2013-10-09 07:29:00,35.6,34.3,24.64,SW,235,17.0,-999.0,95,-99.99,,,-99.99,dwt +perl,2013-10-09 14:29:00,
2013-10-09 07:33:00,34.5,33.2,24.64,SW,226,15.0,-999.0,95,-99.99,,,-99.99,dwt +perl,2013-10-09 14:33:00,
2013-10-09 07:39:00,34.6,33.3,24.63,SW,233,17.0,-999.0,95,-99.99,,,-99.99,dwt +perl,2013-10-09 14:39:00,
2013-10-09 07:43:00,34.3,33.3,24.64,WSW,241,10.0,-999.0,96,-99.99,,,-99.99,dwt +perl,2013-10-09 14:43:00,
2013-10-09 07:49:00,34.3,33.3,24.63,West,264,18.0,-999.0,96,-99.99,,,-99.99,dwt +perl,2013-10-09 14:49:00,
2013-10-09 07:53:00,34.3,33.3,24.63,WSW,256,14.0,-999.0,96,-99.99,,,-99.99,dwt +perl,2013-10-09 14:53:00,
2013-10-09 07:59:00,34.3,33.3,24.64,West,270,14.0,-999.0,96,-99.99,,,-99.99,dwt +perl,2013-10-09 14:59:00,
2013-10-09 08:09:00,34.4,33.4,24.64,SW,225,18.0,-999.0,96,-99.99,,,-99.99,dwt +perl,2013-10-09 15:09:00,
2013-10-09 08:14:00,34.5,33.5,24.64,SW,236,14.0,-999.0,96,-99.99,,,-99.99,dwt +perl,2013-10-09 15:14:00,
2013-10-09 08:19:00,34.4,33.4,24.64,SW,231,18.0,-999.0,96,-99.99,,,-99.99,dwt +perl,2013-10-09 15:19:00,
2013-10-09 08:23:00,34.1,33.1,24.64,WSW,238,17.0,-999.0,96,-99.99,,,-99.99,dwt +perl,2013-10-09 15:23:00,
2013-10-09 08:24:00,34.4,33.4,24.64,West,260,15.0,-999.0,96,-99.99,,,-99.99,dwt +perl,2013-10-09 15:24:00,
2013-10-09 08:29:00,34.2,33.2,24.64,WSW,242,18.0,-999.0,96,-99.99,,,-99.99,dwt +perl,2013-10-09 15:29:00,
2013-10-09 08:39:00,33.7,32.7,24.64,WSW,257,14.0,-999.0,96,-99.99,,,-99.99,dwt +perl,2013-10-09 15:39:00,
2013-10-09 08:43:00,33.6,32.6,24.64,West,272,17.0,-999.0,96,-99.99,,,-99.99,dwt +perl,2013-10-09 15:43:00,
2013-10-09 08:44:00,33.8,32.8,24.64,WSW,248,16.0,-999.0,96,-99.99,,,-99.99,dwt +perl,2013-10-09 15:44:00,
2013-10-09 08:48:00,33.6,32.6,24.64,WSW,253,15.0,-999.0,96,-99.99,,,-99.99,dwt +perl,2013-10-09 15:48:00,
2013-10-09 08:49:00,33.5,32.5,24.64,WSW,252,13.0,-999.0,96,-99.99,,,-99.99,dwt +perl,2013-10-09 15:49:00,
2013-10-09 09:03:00,33.9,32.9,24.64,WSW,257,10.0,-999.0,96,-99.99,,,-99.99,dwt +perl,2013-10-09 16:03:00,
2013-10-09 09:04:00,33.5,32.5,24.64,West,277,14.0,-999.0,96,-99.99,,,-99.99,dwt +perl,2013-10-09 16:04:00,
2013-10-09 09:09:00,33.5,32.5,24.64,West,276,16.0,-999.0,96,-99.99,,,-99.99,dwt +perl,2013-10-09 16:09:00,
2013-10-09 09:18:00,34.8,33.5,24.63,WSW,253,14.0,-999.0,95,-99.99,,,-99.99,dwt +perl,2013-10-09 16:18:00,
2013-10-09 09:19:00,34.2,33.2,24.64,West,264,14.0,-999.0,96,-99.99,,,-99.99,dwt +perl,2013-10-09 16:19:00,
2013-10-09 09:24:00,34.5,33.2,24.64,WSW,254,13.0,-999.0,95,-99.99,,,-99.99,dwt +perl,2013-10-09 16:24:00,
2013-10-09 09:28:00,35.0,33.7,24.64,SW,232,14.0,-999.0,95,-99.99,,,-99.99,dwt +perl,2013-10-09 16:28:00,
2013-10-09 09:33:00,35.1,33.8,24.64,WSW,239,13.0,-999.0,95,-99.99,,,-99.99,dwt +perl,2013-10-09 16:33:00,
2013-10-09 09:34:00,35.2,33.9,24.64,WSW,251,15.0,-999.0,95,-99.99,,,-99.99,dwt +perl,2013-10-09 16:34:00,
2013-10-09 09:38:00,35.4,34.1,24.64,WSW,249,10.0,-999.0,95,-99.99,,,-99.99,dwt +perl,2013-10-09 16:38:00,
2013-10-09 09:54:00,35.8,34.5,24.65,West,264,6.0,-999.0,95,-99.99,,,-99.99,dwt +perl,2013-10-09 16:54:00,
2013-10-09 09:58:00,36.9,35.1,24.66,WSW,247,4.0,-999.0,93,-99.99,,,-99.99,dwt +perl,2013-10-09 16:58:00,
2013-10-09 09:59:00,36.0,34.4,24.65,WSW,249,12.0,-999.0,94,-99.99,,,-99.99,dwt +perl,2013-10-09 16:59:00,
2013-10-09 10:03:00,37.1,35.0,24.66,SW,225,6.0,-999.0,92,-99.99,,,-99.99,dwt +perl,2013-10-09 17:03:00,
2013-10-09 10:04:00,36.6,35.0,24.65,WSW,253,8.0,-999.0,94,-99.99,,,-99.99,dwt +perl,2013-10-09 17:04:00,
2013-10-09 10:08:00,37.4,35.3,24.66,West,259,5.0,-999.0,92,-99.99,,,-99.99,dwt +perl,2013-10-09 17:08:00,
2013-10-09 10:18:00,37.8,35.4,24.66,SW,229,6.0,-999.0,91,-99.99,,,-99.99,dwt +perl,2013-10-09 17:18:00,
2013-10-09 10:24:00,37.3,34.6,24.66,WSW,249,6.0,-999.0,90,-99.99,,,-99.99,dwt +perl,2013-10-09 17:24:00,
2013-10-09 10:28:00,38.7,34.0,24.66,SW,229,0.0,-999.0,83,-99.99,,,-99.99,dwt +perl,2013-10-09 17:28:00,
2013-10-09 10:34:00,38.0,33.9,24.66,SW,229,4.0,-999.0,85,-99.99,,,-99.99,dwt +perl,2013-10-09 17:34:00,
2013-10-09 10:38:00,41.0,37.7,24.66,ENE,64,4.0,-999.0,88,-99.99,,,-99.99,dwt +perl,2013-10-09 17:38:00,
2013-10-09 10:43:00,41.6,37.7,24.66,ENE,73,2.0,-999.0,86,-99.99,,,-99.99,dwt +perl,2013-10-09 17:43:00,
2013-10-09 10:44:00,39.6,35.8,24.66,SW,218,1.0,-999.0,86,-99.99,,,-99.99,dwt +perl,2013-10-09 17:44:00,
2013-10-09 10:48:00,40.7,36.5,24.66,ENE,58,5.0,-999.0,85,-99.99,,,-99.99,dwt +perl,2013-10-09 17:48:00,
2013-10-09 11:04:00,39.5,36.2,24.66,NE,56,7.0,-999.0,88,-99.99,,,-99.99,dwt +perl,2013-10-09 18:04:00,
2013-10-09 11:09:00,39.1,36.4,24.65,NE,52,4.0,-999.0,90,-99.99,,,-99.99,dwt +perl,2013-10-09 18:09:00,
2013-10-09 11:14:00,39.9,37.2,24.65,NE,56,8.0,-999.0,90,-99.99,,,-99.99,dwt +perl,2013-10-09 18:14:00,
2013-10-09 11:19:00,40.0,37.0,24.66,ENE,63,5.0,-999.0,89,-99.99,,,-99.99,dwt +perl,2013-10-09 18:19:00,
2013-10-09 11:24:00,40.0,36.7,24.66,ENE,63,4.0,-999.0,88,-99.99,,,-99.99,dwt +perl,2013-10-09 18:24:00,
2013-10-09 11:29:00,39.8,36.8,24.66,NE,55,6.0,-999.0,89,-99.99,,,-99.99,dwt +perl,2013-10-09 18:29:00,
2013-10-09 11:33:00,39.8,36.5,24.66,ENE,60,4.0,-999.0,88,-99.99,,,-99.99,dwt +perl,2013-10-09 18:33:00,
2013-10-09 11:34:00,39.8,36.5,24.66,NE,54,7.0,-999.0,88,-99.99,,,-99.99,dwt +perl,2013-10-09 18:34:00,
2013-10-09 11:38:00,39.9,36.6,24.66,ENE,59,7.0,-999.0,88,-99.99,,,-99.99,dwt +perl,2013-10-09 18:38:00,
2013-10-09 11:39:00,40.0,36.7,24.66,NE,53,7.0,-999.0,88,-99.99,,,-99.99,dwt +perl,2013-10-09 18:39:00,
2013-10-09 11:53:00,39.8,36.5,24.66,NE,56,4.0,-999.0,88,-99.99,,,-99.99,dwt +perl,2013-10-09 18:53:00,
2013-10-09 11:54:00,39.7,36.4,24.66,ENE,57,9.0,-999.0,88,-99.99,,,-99.99,dwt +perl,2013-10-09 18:54:00,
2013-10-09 11:58:00,40.1,36.2,24.66,NE,52,4.0,-999.0,86,-99.99,,,-99.99,dwt +perl,2013-10-09 18:58:00,
2013-10-09 11:59:00,39.5,36.2,24.66,NE,55,5.0,-999.0,88,-99.99,,,-99.99,dwt +perl,2013-10-09 18:59:00,
2013-10-09 12:03:00,40.8,36.6,24.66,ENE,58,9.0,-999.0,85,-99.99,,,-99.99,dwt +perl,2013-10-09 19:03:00,
2013-10-09 12:13:00,41.1,36.9,24.67,SE,133,5.0,-999.0,85,-99.99,,,-99.99,dwt +perl,2013-10-09 19:13:00,
2013-10-09 12:18:00,40.2,36.6,24.67,NE,46,5.0,-999.0,87,-99.99,,,-99.99,dwt +perl,2013-10-09 19:18:00,
2013-10-09 12:19:00,41.5,37.0,24.67,ENE,60,8.0,-999.0,84,-99.99,,,-99.99,dwt +perl,2013-10-09 19:19:00,
2013-10-09 12:33:00,40.5,37.2,24.67,NE,48,10.0,-999.0,88,-99.99,,,-99.99,dwt +perl,2013-10-09 19:33:00,
2013-10-09 12:34:00,39.7,37.0,24.67,NE,50,8.0,-999.0,90,-99.99,,,-99.99,dwt +perl,2013-10-09 19:34:00,
2013-10-09 12:39:00,39.8,37.4,24.67,ENE,62,11.0,-999.0,91,-99.99,,,-99.99,dwt +perl,2013-10-09 19:39:00,
2013-10-09 12:49:00,40.8,37.8,24.67,ENE,76,7.0,-999.0,89,-99.99,,,-99.99,dwt +perl,2013-10-09 19:49:00,
2013-10-09 12:53:00,42.2,37.4,24.67,ENE,57,8.0,-999.0,83,-99.99,,,-99.99,dwt +perl,2013-10-09 19:53:00,
2013-10-09 12:54:00,41.8,37.9,24.67,ENE,59,14.0,-999.0,86,-99.99,,,-99.99,dwt +perl,2013-10-09 19:54:00,
2013-10-09 12:59:00,42.1,37.3,24.67,ENE,71,12.0,-999.0,83,-99.99,,,-99.99,dwt +perl,2013-10-09 19:59:00,
2013-10-09 13:08:00,41.9,36.5,24.68,NE,56,8.0,-999.0,81,-99.99,,,-99.99,dwt +perl,2013-10-09 20:08:00,
2013-10-09 13:09:00,41.3,35.6,24.67,ENE,77,5.0,-999.0,80,-99.99,,,-99.99,dwt +perl,2013-10-09 20:09:00,
2013-10-09 13:14:00,41.4,36.0,24.67,ENE,58,10.0,-999.0,81,-99.99,,,-99.99,dwt +perl,2013-10-09 20:14:00,
2013-10-09 13:18:00,43.5,36.1,24.68,ENE,67,7.0,-999.0,75,-99.99,,,-99.99,dwt +perl,2013-10-09 20:18:00,
2013-10-09 13:24:00,43.0,36.6,24.68,NE,53,6.0,-999.0,78,-99.99,,,-99.99,dwt +perl,2013-10-09 20:24:00,
2013-10-09 13:34:00,43.9,36.5,24.68,NE,53,8.0,-999.0,75,-99.99,,,-99.99,dwt +perl,2013-10-09 20:34:00,
2013-10-09 13:39:00,43.0,36.0,24.68,NE,56,5.0,-999.0,76,-99.99,,,-99.99,dwt +perl,2013-10-09 20:39:00,
2013-10-09 13:44:00,42.1,35.4,24.69,ENE,62,4.0,-999.0,77,-99.99,,,-99.99,dwt +perl,2013-10-09 20:44:00,
2013-10-09 13:49:00,41.4,35.7,24.69,ENE,59,2.0,-999.0,80,-99.99,,,-99.99,dwt +perl,2013-10-09 20:49:00,
2013-10-09 13:53:00,40.6,36.2,24.69,NE,53,6.0,-999.0,84,-99.99,,,-99.99,dwt +perl,2013-10-09 20:53:00,
2013-10-09 13:54:00,40.9,35.8,24.69,SE,126,0.0,-999.0,82,-99.99,,,-99.99,dwt +perl,2013-10-09 20:54:00,
2013-10-09 13:59:00,40.7,35.9,24.69,ENE,57,5.0,-999.0,83,-99.99,,,-99.99,dwt +perl,2013-10-09 20:59:00,
2013-10-09 14:08:00,40.6,36.7,24.70,NE,52,6.0,-999.0,86,-99.99,,,-99.99,dwt +perl,2013-10-09 21:08:00,
2013-10-09 14:09:00,40.5,36.3,24.69,ENE,62,4.0,-999.0,85,-99.99,,,-99.99,dwt +perl,2013-10-09 21:09:00,
2013-10-09 14:14:00,40.5,36.6,24.69,ENE,58,8.0,-999.0,86,-99.99,,,-99.99,dwt +perl,2013-10-09 21:14:00,
2013-10-09 14:24:00,41.0,36.8,24.70,NE,48,3.0,-999.0,85,-99.99,,,-99.99,dwt +perl,2013-10-09 21:24:00,
2013-10-09 14:29:00,41.2,36.4,24.70,NE,37,1.0,-999.0,83,-99.99,,,-99.99,dwt +perl,2013-10-09 21:29:00,
2013-10-09 14:34:00,41.5,37.0,24.70,NE,53,6.0,-999.0,84,-99.99,,,-99.99,dwt +perl,2013-10-09 21:34:00,
2013-10-09 14:39:00,41.2,36.4,24.70,NE,39,3.0,-999.0,83,-99.99,,,-99.99,dwt +perl,2013-10-09 21:39:00,
2013-10-09 14:44:00,41.6,37.1,24.70,ENE,58,7.0,-999.0,84,-99.99,,,-99.99,dwt +perl,2013-10-09 21:44:00,
2013-10-09 14:49:00,42.2,37.4,24.71,ENE,58,1.0,-999.0,83,-99.99,,,-99.99,dwt +perl,2013-10-09 21:49:00,
2013-10-09 14:54:00,42.5,37.1,24.71,ENE,58,1.0,-999.0,81,-99.99,,,-99.99,dwt +perl,2013-10-09 21:54:00,
2013-10-09 14:59:00,42.3,37.2,24.71,NE,53,4.0,-999.0,82,-99.99,,,-99.99,dwt +perl,2013-10-09 21:59:00,
2013-10-09 15:04:00,42.3,37.5,24.71,NNW,338,3.0,-999.0,83,-99.99,,,-99.99,dwt +perl,2013-10-09 22:04:00,
2013-10-09 15:09:00,41.9,37.7,24.72,NW,318,8.0,-999.0,85,-99.99,,,-99.99,dwt +perl,2013-10-09 22:09:00,
2013-10-09 15:14:00,41.8,37.6,24.72,NW,322,6.0,-999.0,85,-99.99,,,-99.99,dwt +perl,2013-10-09 22:14:00,
2013-10-09 15:19:00,42.3,37.8,24.72,ENE,64,0.0,-999.0,84,-99.99,,,-99.99,dwt +perl,2013-10-09 22:19:00,
2013-10-09 15:24:00,42.9,37.8,24.72,North,354,3.0,-999.0,82,-99.99,,,-99.99,dwt +perl,2013-10-09 22:24:00,
2013-10-09 15:29:00,42.8,38.3,24.72,NNW,338,2.0,-999.0,84,-99.99,,,-99.99,dwt +perl,2013-10-09 22:29:00,
2013-10-09 15:33:00,43.4,38.6,24.73,NNE,29,6.0,-999.0,83,-99.99,,,-99.99,dwt +perl,2013-10-09 22:33:00,
2013-10-09 15:34:00,43.2,38.4,24.73,North,4,4.0,-999.0,83,-99.99,,,-99.99,dwt +perl,2013-10-09 22:34:00,
2013-10-09 15:39:00,43.4,38.0,24.73,ENE,60,2.0,-999.0,81,-99.99,,,-99.99,dwt +perl,2013-10-09 22:39:00,
2013-10-09 15:48:00,42.4,37.3,24.73,NNE,27,7.0,-999.0,82,-99.99,,,-99.99,dwt +perl,2013-10-09 22:48:00,
2013-10-09 15:49:00,43.2,38.1,24.73,NNE,30,6.0,-999.0,82,-99.99,,,-99.99,dwt +perl,2013-10-09 22:49:00,
2013-10-09 15:54:00,42.9,38.1,24.73,NE,48,6.0,-999.0,83,-99.99,,,-99.99,dwt +perl,2013-10-09 22:54:00,
2013-10-09 16:04:00,42.3,37.8,24.73,NNE,25,3.0,-999.0,84,-99.99,,,-99.99,dwt +perl,2013-10-09 23:04:00,
2013-10-09 16:09:00,42.8,37.7,24.74,NE,51,4.0,-999.0,82,-99.99,,,-99.99,dwt +perl,2013-10-09 23:09:00,
2013-10-09 16:13:00,42.8,37.1,24.74,NE,46,5.0,-999.0,80,-99.99,,,-99.99,dwt +perl,2013-10-09 23:13:00,
2013-10-09 16:14:00,43.4,37.3,24.74,NE,48,9.0,-999.0,79,-99.99,,,-99.99,dwt +perl,2013-10-09 23:14:00,
2013-10-09 16:19:00,43.3,37.5,24.74,NE,50,7.0,-999.0,80,-99.99,,,-99.99,dwt +perl,2013-10-09 23:19:00,
2013-10-09 16:29:00,42.7,37.0,24.74,ENE,61,4.0,-999.0,80,-99.99,,,-99.99,dwt +perl,2013-10-09 23:29:00,
2013-10-09 16:34:00,42.7,37.3,24.74,NE,50,7.0,-999.0,81,-99.99,,,-99.99,dwt +perl,2013-10-09 23:34:00,
2013-10-09 16:39:00,42.8,36.7,24.74,NE,41,9.0,-999.0,79,-99.99,,,-99.99,dwt +perl,2013-10-09 23:39:00,
2013-10-09 16:44:00,43.2,37.5,24.74,ENE,66,8.0,-999.0,80,-99.99,,,-99.99,dwt +perl,2013-10-09 23:44:00,
2013-10-09 16:49:00,43.8,37.4,24.75,ENE,60,3.0,-999.0,78,-99.99,,,-99.99,dwt +perl,2013-10-09 23:49:00,
2013-10-09 16:54:00,44.0,37.6,24.75,NE,53,3.0,-999.0,78,-99.99,,,-99.99,dwt +perl,2013-10-09 23:54:00,
2013-10-09 16:59:00,44.0,37.6,24.75,ENE,64,1.0,-999.0,78,-99.99,,,-99.99,dwt +perl,2013-10-09 23:59:00,
2013-10-09 17:04:00,43.6,37.5,24.75,NNE,17,9.0,-999.0,79,-99.99,,,-99.99,dwt +perl,2013-10-10 00:04:00,
2013-10-09 17:09:00,43.2,37.8,24.75,ENE,57,3.0,-999.0,81,-99.99,,,-99.99,dwt +perl,2013-10-10 00:09:00,
2013-10-09 17:14:00,43.2,37.5,24.75,ENE,58,8.0,-999.0,80,-99.99,,,-99.99,dwt +perl,2013-10-10 00:14:00,
2013-10-09 17:19:00,42.9,37.5,24.76,NE,51,4.0,-999.0,81,-99.99,,,-99.99,dwt +perl,2013-10-10 00:19:00,
2013-10-09 17:24:00,42.3,36.9,24.76,NE,35,4.0,-999.0,81,-99.99,,,-99.99,dwt +perl,2013-10-10 00:24:00,
2013-10-09 17:29:00,42.2,36.8,24.76,NE,45,3.0,-999.0,81,-99.99,,,-99.99,dwt +perl,2013-10-10 00:29:00,
2013-10-09 17:34:00,42.0,36.9,24.76,ENE,76,2.0,-999.0,82,-99.99,,,-99.99,dwt +perl,2013-10-10 00:34:00,
2013-10-09 17:39:00,41.8,37.3,24.76,NNE,15,1.0,-999.0,84,-99.99,,,-99.99,dwt +perl,2013-10-10 00:39:00,
2013-10-09 17:44:00,41.6,37.7,24.76,NNW,342,4.0,-999.0,86,-99.99,,,-99.99,dwt +perl,2013-10-10 00:44:00,
2013-10-09 17:49:00,41.3,37.7,24.76,NNW,347,4.0,-999.0,87,-99.99,,,-99.99,dwt +perl,2013-10-10 00:49:00,
2013-10-09 17:54:00,41.1,37.8,24.76,WNW,302,3.0,-999.0,88,-99.99,,,-99.99,dwt +perl,2013-10-10 00:54:00,
2013-10-09 17:59:00,40.9,37.6,24.77,NNW,328,4.0,-999.0,88,-99.99,,,-99.99,dwt +perl,2013-10-10 00:59:00,
2013-10-09 18:04:00,40.6,37.6,24.77,NNW,342,6.0,-999.0,89,-99.99,,,-99.99,dwt +perl,2013-10-10 01:04:00,
2013-10-09 18:09:00,40.4,37.4,24.77,NNW,335,9.0,-999.0,89,-99.99,,,-99.99,dwt +perl,2013-10-10 01:09:00,
2013-10-09 18:14:00,40.3,37.3,24.77,North,354,4.0,-999.0,89,-99.99,,,-99.99,dwt +perl,2013-10-10 01:14:00,
2013-10-09 18:19:00,40.2,37.2,24.77,NNE,12,4.0,-999.0,89,-99.99,,,-99.99,dwt +perl,2013-10-10 01:19:00,
2013-10-09 18:24:00,40.2,37.2,24.78,NNW,335,5.0,-999.0,89,-99.99,,,-99.99,dwt +perl,2013-10-10 01:24:00,
2013-10-09 18:29:00,40.0,36.7,24.77,North,354,6.0,-999.0,88,-99.99,,,-99.99,dwt +perl,2013-10-10 01:29:00,
2013-10-09 18:34:00,39.8,36.8,24.78,NNE,23,5.0,-999.0,89,-99.99,,,-99.99,dwt +perl,2013-10-10 01:34:00,
2013-10-09 18:39:00,39.8,36.5,24.78,NNE,21,7.0,-999.0,88,-99.99,,,-99.99,dwt +perl,2013-10-10 01:39:00,
2013-10-09 18:44:00,39.8,36.5,24.78,NNE,23,5.0,-999.0,88,-99.99,,,-99.99,dwt +perl,2013-10-10 01:44:00,
2013-10-09 18:49:00,39.8,36.5,24.78,NNE,31,7.0,-999.0,88,-99.99,,,-99.99,dwt +perl,2013-10-10 01:49:00,
2013-10-09 18:54:00,39.7,36.4,24.78,NNE,27,10.0,-999.0,88,-99.99,,,-99.99,dwt +perl,2013-10-10 01:54:00,
2013-10-09 18:59:00,39.7,36.4,24.78,NNE,31,10.0,-999.0,88,-99.99,,,-99.99,dwt +perl,2013-10-10 01:59:00,
2013-10-09 19:04:00,39.7,36.7,24.79,NNE,24,6.0,-999.0,89,-99.99,,,-99.99,dwt +perl,2013-10-10 02:04:00,
2013-10-09 19:09:00,39.6,36.6,24.79,NW,314,9.0,-999.0,89,-99.99,,,-99.99,dwt +perl,2013-10-10 02:09:00,
2013-10-09 19:14:00,39.6,36.9,24.79,NNE,27,7.0,-999.0,90,-99.99,,,-99.99,dwt +perl,2013-10-10 02:14:00,
2013-10-09 19:19:00,39.8,37.4,24.79,NE,41,7.0,-999.0,91,-99.99,,,-99.99,dwt +perl,2013-10-10 02:19:00,
2013-10-09 19:24:00,39.8,37.4,24.79,NNE,27,4.0,-999.0,91,-99.99,,,-99.99,dwt +perl,2013-10-10 02:24:00,
2013-10-09 19:29:00,39.8,37.4,24.80,NE,37,7.0,-999.0,91,-99.99,,,-99.99,dwt +perl,2013-10-10 02:29:00,
2013-10-09 19:34:00,39.9,37.8,24.80,NNE,23,9.0,-999.0,92,-99.99,,,-99.99,dwt +perl,2013-10-10 02:34:00,
2013-10-09 19:39:00,40.0,37.6,24.80,NNE,32,8.0,-999.0,91,-99.99,,,-99.99,dwt +perl,2013-10-10 02:39:00,
2013-10-09 19:44:00,40.0,37.6,24.80,NNE,16,6.0,-999.0,91,-99.99,,,-99.99,dwt +perl,2013-10-10 02:44:00,
2013-10-09 19:49:00,40.0,37.3,24.80,NNE,25,8.0,-999.0,90,-99.99,,,-99.99,dwt +perl,2013-10-10 02:49:00,
2013-10-09 19:54:00,40.1,37.1,24.81,NNW,331,10.0,-999.0,89,-99.99,,,-99.99,dwt +perl,2013-10-10 02:54:00,
2013-10-09 19:59:00,40.2,37.2,24.81,North,9,9.0,-999.0,89,-99.99,,,-99.99,dwt +perl,2013-10-10 02:59:00,
2013-10-09 20:04:00,40.4,37.4,24.81,NNE,30,8.0,-999.0,89,-99.99,,,-99.99,dwt +perl,2013-10-10 03:04:00,
2013-10-09 20:09:00,40.4,37.1,24.81,NNE,29,8.0,-999.0,88,-99.99,,,-99.99,dwt +perl,2013-10-10 03:09:00,
2013-10-09 20:14:00,40.4,37.1,24.81,NNE,31,7.0,-999.0,88,-99.99,,,-99.99,dwt +perl,2013-10-10 03:14:00,
2013-10-09 20:19:00,40.4,36.8,24.81,NNE,27,8.0,-999.0,87,-99.99,,,-99.99,dwt +perl,2013-10-10 03:19:00,
2013-10-09 20:24:00,40.5,36.9,24.82,North,359,6.0,-999.0,87,-99.99,,,-99.99,dwt +perl,2013-10-10 03:24:00,
2013-10-09 20:29:00,40.6,37.0,24.82,NNE,26,9.0,-999.0,87,-99.99,,,-99.99,dwt +perl,2013-10-10 03:29:00,
2013-10-09 20:34:00,40.6,37.0,24.82,NW,326,11.0,-999.0,87,-99.99,,,-99.99,dwt +perl,2013-10-10 03:34:00,
2013-10-09 20:39:00,40.6,37.0,24.83,NE,39,3.0,-999.0,87,-99.99,,,-99.99,dwt +perl,2013-10-10 03:39:00,
2013-10-09 20:44:00,40.6,36.7,24.83,NNW,337,6.0,-999.0,86,-99.99,,,-99.99,dwt +perl,2013-10-10 03:44:00,
2013-10-09 20:53:00,41.0,36.8,24.84,NW,305,8.0,-999.0,85,-99.99,,,-99.99,dwt +perl,2013-10-10 03:53:00,
2013-10-09 20:54:00,40.9,37.0,24.83,NNE,21,7.0,-999.0,86,-99.99,,,-99.99,dwt +perl,2013-10-10 03:54:00,
2013-10-09 20:58:00,41.1,36.9,24.84,NW,322,10.0,-999.0,85,-99.99,,,-99.99,dwt +perl,2013-10-10 03:58:00,
2013-10-09 20:59:00,41.0,36.8,24.83,North,349,4.0,-999.0,85,-99.99,,,-99.99,dwt +perl,2013-10-10 03:59:00,
2013-10-09 21:03:00,41.2,36.7,24.84,NNW,332,6.0,-999.0,84,-99.99,,,-99.99,dwt +perl,2013-10-10 04:03:00,
2013-10-09 21:08:00,41.5,37.0,24.84,NW,315,9.0,-999.0,84,-99.99,,,-99.99,dwt +perl,2013-10-10 04:08:00,
2013-10-09 21:13:00,41.3,36.8,24.84,NNW,346,6.0,-999.0,84,-99.99,,,-99.99,dwt +perl,2013-10-10 04:13:00,
2013-10-09 21:18:00,41.5,36.7,24.85,NW,314,12.0,-999.0,83,-99.99,,,-99.99,dwt +perl,2013-10-10 04:18:00,
2013-10-09 21:23:00,41.8,36.7,24.85,NNW,346,11.0,-999.0,82,-99.99,,,-99.99,dwt +perl,2013-10-10 04:23:00,
2013-10-09 21:28:00,42.1,36.4,24.85,NW,316,8.0,-999.0,80,-99.99,,,-99.99,dwt +perl,2013-10-10 04:28:00,
2013-10-09 21:33:00,42.3,36.3,24.85,North,349,14.0,-999.0,79,-99.99,,,-99.99,dwt +perl,2013-10-10 04:33:00,
2013-10-09 21:38:00,42.1,36.4,24.85,NW,310,9.0,-999.0,80,-99.99,,,-99.99,dwt +perl,2013-10-10 04:38:00,
2013-10-09 21:43:00,41.9,36.2,24.85,NNW,339,10.0,-999.0,80,-99.99,,,-99.99,dwt +perl,2013-10-10 04:43:00,
2013-10-09 21:48:00,41.9,36.2,24.85,NNE,25,7.0,-999.0,80,-99.99,,,-99.99,dwt +perl,2013-10-10 04:48:00,
2013-10-09 21:53:00,42.0,36.3,24.86,NW,326,11.0,-999.0,80,-99.99,,,-99.99,dwt +perl,2013-10-10 04:53:00,
2013-10-09 21:58:00,41.9,36.2,24.86,NW,314,13.0,-999.0,80,-99.99,,,-99.99,dwt +perl,2013-10-10 04:58:00,
2013-10-09 22:03:00,42.0,36.3,24.86,WNW,296,11.0,-999.0,80,-99.99,,,-99.99,dwt +perl,2013-10-10 05:03:00,
2013-10-09 22:08:00,42.0,36.3,24.86,NNW,332,12.0,-999.0,80,-99.99,,,-99.99,dwt +perl,2013-10-10 05:08:00,
2013-10-09 22:13:00,42.0,36.3,24.86,NW,312,15.0,-999.0,80,-99.99,,,-99.99,dwt +perl,2013-10-10 05:13:00,
2013-10-09 22:18:00,42.0,36.0,24.87,NW,313,13.0,-999.0,79,-99.99,,,-99.99,dwt +perl,2013-10-10 05:18:00,
2013-10-09 22:23:00,42.0,36.0,24.86,NW,326,10.0,-999.0,79,-99.99,,,-99.99,dwt +perl,2013-10-10 05:23:00,
2013-10-09 22:28:00,41.9,35.9,24.87,North,9,12.0,-999.0,79,-99.99,,,-99.99,dwt +perl,2013-10-10 05:28:00,
2013-10-09 22:33:00,42.0,36.0,24.87,NW,318,16.0,-999.0,79,-99.99,,,-99.99,dwt +perl,2013-10-10 05:33:00,
2013-10-09 22:38:00,42.0,36.0,24.86,NW,311,14.0,-999.0,79,-99.99,,,-99.99,dwt +perl,2013-10-10 05:38:00,
2013-10-09 22:43:00,42.0,36.0,24.87,NNW,348,9.0,-999.0,79,-99.99,,,-99.99,dwt +perl,2013-10-10 05:43:00,
2013-10-09 22:48:00,42.2,35.8,24.86,North,354,7.0,-999.0,78,-99.99,,,-99.99,dwt +perl,2013-10-10 05:48:00,
2013-10-09 22:53:00,42.4,36.0,24.87,NE,46,7.0,-999.0,78,-99.99,,,-99.99,dwt +perl,2013-10-10 05:53:00,
2013-10-09 22:58:00,42.5,35.5,24.87,NNW,334,16.0,-999.0,76,-99.99,,,-99.99,dwt +perl,2013-10-10 05:58:00,
2013-10-09 23:03:00,42.5,35.5,24.87,WNW,299,11.0,-999.0,76,-99.99,,,-99.99,dwt +perl,2013-10-10 06:03:00,
2013-10-09 23:08:00,42.2,35.5,24.87,WNW,291,11.0,-999.0,77,-99.99,,,-99.99,dwt +perl,2013-10-10 06:08:00,
2013-10-09 23:13:00,41.9,35.2,24.87,NNW,330,10.0,-999.0,77,-99.99,,,-99.99,dwt +perl,2013-10-10 06:13:00,
2013-10-09 23:18:00,41.8,35.1,24.87,WNW,297,6.0,-999.0,77,-99.99,,,-99.99,dwt +perl,2013-10-10 06:18:00,
2013-10-09 23:23:00,42.0,35.3,24.87,NW,318,9.0,-999.0,77,-99.99,,,-99.99,dwt +perl,2013-10-10 06:23:00,
2013-10-09 23:28:00,42.3,35.3,24.87,NW,310,12.0,-999.0,76,-99.99,,,-99.99,dwt +perl,2013-10-10 06:28:00,
2013-10-09 23:33:00,42.4,35.0,24.87,NNW,333,10.0,-999.0,75,-99.99,,,-99.99,dwt +perl,2013-10-10 06:33:00,
2013-10-09 23:38:00,42.5,35.1,24.87,NW,326,10.0,-999.0,75,-99.99,,,-99.99,dwt +perl,2013-10-10 06:38:00,
2013-10-09 23:43:00,42.6,34.9,24.88,NNW,327,13.0,-999.0,74,-99.99,,,-99.99,dwt +perl,2013-10-10 06:43:00,
2013-10-09 23:48:00,42.7,35.0,24.88,NW,315,12.0,-999.0,74,-99.99,,,-99.99,dwt +perl,2013-10-10 06:48:00,
2013-10-09 23:53:00,42.7,35.0,24.88,NNE,13,6.0,-999.0,74,-99.99,,,-99.99,dwt +perl,2013-10-10 06:53:00,
2013-10-09 23:58:00,43.1,34.3,24.88,NW,304,14.0,-999.0,71,-99.99,,,-99.99,dwt +perl,2013-10-10 06:58:00,